GW5208 Weather Reports


time (UTC)temp
C
wind
direction
speed
KPH
gust
KPH
rain 1hr
cm
rain 24hr
cm
rain mn
cm
humidity
%
barometer
mb
20260504050006 13 65 17.7 22.5 0.00 0.00 0.00 37 1011.3
20260504044513 13 46 3.2 6.4 0.00 0.00 0.00 35 1010.8
20260504043016 13 46 1.6 3.2 0.00 0.00 0.00 36 1010.4
20260504041521 14 46 1.6 8.0 0.00 0.00 0.00 35 1010.2
20260504040003 14 61 8.0 11.3 0.00 0.00 0.00 35 1009.9
20260504034504 15 68 8.0 14.5 0.00 0.00 0.00 34 1009.6
20260504033014 16 67 16.1 29.0 0.00 0.00 0.00 32 1009.2
20260504031516 16 56 14.5 19.3 0.00 0.03 0.00 27 1008.8
20260504030019 17 41 4.8 9.7 0.00 0.03 0.00 23 1008.2
20260504024504 17 61 3.2 6.4 0.00 0.03 0.00 22 1007.8
20260504023008 18 53 3.2 6.4 0.00 0.03 0.00 22 1007.9
20260504021515 20 56 4.8 9.7 0.00 0.03 0.00 21 1007.9
20260504020019 20 55 6.4 11.3 0.00 0.03 0.00 20 1008.0
20260504014531 21 36 8.0 14.5 0.00 0.03 0.00 19 1008.0
20260504013006 22 44 4.8 14.5 0.00 0.03 0.00 19 1007.9
20260504011519 22 20 6.4 14.5 0.00 0.03 0.00 18 1008.0
20260504010016 23 32 4.8 12.9 0.00 0.03 0.00 18 1008.0
20260504004524 23 11 8.0 14.5 0.00 0.03 0.00 17 1008.1
20260504003006 23 47 9.7 16.1 0.00 0.03 0.00 17 1008.3
20260504001510 24 325 6.4 16.1 0.00 0.03 0.00 16 1008.3
20260504000017 24 312 6.4 19.3 0.00 0.03 0.00 16 1008.3
20260503234520 24 348 8.0 19.3 0.00 0.03 0.00 16 1008.5
20260503233028 24 352 4.8 16.1 0.00 0.03 0.00 15 1008.5
20260503231514 25 356 12.9 24.1 0.00 0.03 0.00 15 1008.7
20260503230014 24 323 3.2 14.5 0.00 0.03 0.00 15 1008.8
20260503224519 24 317 8.0 25.7 0.00 0.03 0.00 15 1009.1
20260503223024 24 297 6.4 12.9 0.00 0.03 0.00 15 1009.2
20260503221529 24 287 8.0 16.1 0.00 0.03 0.00 14 1009.5
20260503220012 23 326 6.4 11.3 0.00 0.03 0.00 16 1009.7
20260503214503 23 298 6.4 19.3 0.00 0.03 0.00 16 1009.8
20260503213005 23 335 9.7 16.1 0.00 0.03 0.00 16 1010.1
20260503211508 23 1 4.8 14.5 0.00 0.03 0.00 17 1010.3
20260503210012 23 335 6.4 24.1 0.00 0.03 0.00 16 1010.3
20260503204519 23 283 8.0 19.3 0.00 0.03 0.00 16 1010.6
20260503203005 22 328 6.4 14.5 0.00 0.03 0.00 18 1011.0
20260503201510 22 324 6.4 14.5 0.00 0.03 0.00 17 1011.3
20260503200010 22 338 3.2 14.5 0.00 0.03 0.00 19 1011.4
20260503194514 22 330 8.0 17.7 0.00 0.03 0.00 18 1011.7
20260503193021 22 295 9.7 22.5 0.00 0.03 0.00 18 1012.0
20260503191516 21 257 9.7 25.7 0.00 0.03 0.00 19 1012.2
20260503190009 21 261 11.3 22.5 0.00 0.03 0.00 19 1012.2
20260503184515 21 275 9.7 22.5 0.00 0.03 0.00 19 1012.4
20260503183018 21 289 3.2 19.3 0.00 0.03 0.00 1012.5
20260503181506 21 293 6.4 20.9 0.00 0.03 0.00 21 1012.8
20260503180008 21 264 8.0 16.1 0.00 0.03 0.00 21 1013.1
20260503174512 20 359 8.0 20.9 0.00 0.03 0.00 23 1013.1
20260503173017 20 295 6.4 14.5 0.00 0.03 0.00 23 1013.5
20260503171526 19 332 4.8 11.3 0.00 0.03 0.00 26 1013.5
20260503081526 6 259 0.0 3.2 0.00 0.03 0.00 79 1016.2